EUR65 DAUA-VABB

Flight info

Callsign EUR65
Flight time N/A
Altitude 37000
Route DAUA TUC DIDON SONAK DOBIX ASDAX GZO AGARI EVIRA BINKO ALIXA DEMAG PIDAS PLH OTREX AMAXI SIT LAPSO TELRI VEREK PERIM GISOS VAXOS AMONO TOSKA TOBAL RUBIK LCA REXAL DESPO KUKLA KAD DAM SOFIA ABBAS SULAF TAN MODIK RAPLU PUSTO LOVEK DISAR BSR SIDAD DESLU NANPI OBMOR ALNIN IMDAT DURSI EGMID ORSAR MUTVI SHJ TONVO ALSAS DORAB VAXIM RASKI LADOT NOBAT EXOLU VABB
Aircraft A388/J-DGVW/C

Departure

Time 2026-05-05 08:21
Airport Touat-Cheikh Sidi Mohamed Belkebir Airport (DAUA)

Arrival

Time N/A
Airport Chhatrapati Shivaji Maharaj International Airport (VABB)
Time Latitude Longitude Altitude Speed Heading
2026-05-05 08:19 27.84786 -0.17717 930 ft 0 kts 219°
2026-05-05 08:20 27.84759 -0.17743 930 ft 23 kts 220°
2026-05-05 08:20 27.84471 -0.18015 930 ft 86 kts 220°
2026-05-05 08:20 27.83842 -0.18613 933 ft 149 kts 213°
2026-05-05 08:20 27.82898 -0.19432 1324 ft 195 kts 217°
2026-05-05 08:21 27.81720 -0.20472 2198 ft 229 kts 221°
2026-05-05 08:21 27.80291 -0.21446 3573 ft 252 kts 208°
2026-05-05 08:21 27.78486 -0.21699 5093 ft 274 kts 184°
2026-05-05 08:21 27.76609 -0.21087 6708 ft 287 kts 160°
2026-05-05 08:22 27.75052 -0.19661 8457 ft 292 kts 137°
2026-05-05 08:22 27.74093 -0.17667 10177 ft 288 kts 112°
2026-05-05 08:22 27.73910 -0.15496 11841 ft 268 kts 85°
2026-05-05 08:22 27.74437 -0.13528 12835 ft 270 kts 62°
2026-05-05 08:23 27.75633 -0.11876 13364 ft 277 kts 35°
2026-05-05 08:23 27.76740 -0.11034 13807 ft 288 kts 24°
2026-05-05 08:24 27.77824 -0.10385 14127 ft 304 kts 19°
2026-05-05 08:24 27.80539 -0.09034 14838 ft 341 kts 15°
2026-05-05 08:24 27.82834 -0.08000 15365 ft 368 kts 15°
2026-05-05 08:25 27.85263 -0.06933 15875 ft 375 kts 15°
2026-05-05 08:25 27.86895 -0.06213 16209 ft 371 kts 15°
2026-05-05 08:25 27.89296 -0.05148 16707 ft 373 kts 15°
2026-05-05 08:25 27.91720 -0.04021 17211 ft 381 kts 17°
2026-05-05 08:26 27.94148 -0.02762 17715 ft 387 kts 20°
2026-05-05 08:26 27.96559 -0.01357 18218 ft 392 kts 22°
2026-05-05 08:26 27.98941 0.00188 18721 ft 398 kts 25°
2026-05-05 08:26 28.01299 0.01860 19225 ft 402 kts 28°
2026-05-05 08:27 28.03634 0.03638 19731 ft 406 kts 30°
2026-05-05 08:27 28.05943 0.05505 20258 ft 411 kts 32°
2026-05-05 08:27 28.08242 0.07453 20759 ft 413 kts 33°
2026-05-05 08:27 28.10508 0.09451 21249 ft 413 kts 33°
2026-05-05 08:28 28.12762 0.11496 21748 ft 417 kts 34°
2026-05-05 08:28 28.15019 0.13591 22250 ft 421 kts 35°
2026-05-05 08:28 28.17279 0.15727 22752 ft 425 kts 35°
2026-05-05 08:28 28.19542 0.17899 23254 ft 428 kts 35°
2026-05-05 08:29 28.21812 0.20102 23756 ft 431 kts 36°
2026-05-05 08:29 28.24089 0.22334 24257 ft 435 kts 36°
2026-05-05 08:29 28.26380 0.24595 24760 ft 438 kts 36°
2026-05-05 08:30 28.30960 0.29157 25756 ft 444 kts 36°
2026-05-05 08:30 28.33319 0.31521 26265 ft 448 kts 36°
2026-05-05 08:30 28.35658 0.33874 26766 ft 451 kts 36°
2026-05-05 08:30 28.37982 0.36218 27261 ft 454 kts 36°
2026-05-05 08:31 28.40350 0.38613 27763 ft 458 kts 36°
2026-05-05 08:31 28.42735 0.41029 28265 ft 461 kts 36°
2026-05-05 08:31 28.45136 0.43466 28766 ft 465 kts 36°
2026-05-05 08:31 28.47552 0.45922 29268 ft 468 kts 36°
2026-05-05 08:32 28.49987 0.48400 29770 ft 471 kts 36°
2026-05-05 08:32 28.52438 0.50898 30271 ft 475 kts 36°
2026-05-05 08:32 28.54903 0.53413 30772 ft 478 kts 35°
2026-05-05 08:32 28.57388 0.55951 31274 ft 482 kts 35°
2026-05-05 08:33 28.59887 0.58506 31775 ft 485 kts 35°
2026-05-05 08:33 28.62407 0.61084 32277 ft 489 kts 35°
2026-05-05 08:33 28.64946 0.63684 32778 ft 493 kts 35°
2026-05-05 08:33 28.67504 0.66305 33280 ft 497 kts 35°
2026-05-05 08:34 28.70083 0.68950 33782 ft 501 kts 35°
2026-05-05 08:34 28.72684 0.71619 34283 ft 505 kts 35°
2026-05-05 08:34 28.75302 0.74308 34784 ft 509 kts 35°
2026-05-05 08:34 28.77942 0.77022 35286 ft 512 kts 35°
2026-05-05 08:35 28.80593 0.79751 35786 ft 515 kts 35°
2026-05-05 08:35 28.83259 0.82498 36286 ft 518 kts 35°
2026-05-05 08:35 28.85936 0.85259 36773 ft 521 kts 35°
2026-05-05 08:35 28.88657 0.88062 36918 ft 532 kts 35°
2026-05-05 08:36 28.91433 0.90919 36984 ft 542 kts 36°
2026-05-05 08:36 28.97097 0.96756 36991 ft 550 kts 36°
2026-05-05 08:37 29.02735 1.02603 36988 ft 546 kts 36°
2026-05-05 08:37 29.08344 1.08440 36989 ft 545 kts 36°
2026-05-05 08:38 29.13945 1.14277 36991 ft 545 kts 36°
2026-05-05 08:38 29.19540 1.20113 36993 ft 544 kts 36°
2026-05-05 08:39 29.25133 1.25953 36994 ft 544 kts 36°
2026-05-05 08:39 29.30721 1.31795 36994 ft 544 kts 36°
2026-05-05 08:40 29.36268 1.37601 36997 ft 544 kts 36°
2026-05-05 08:40 29.41849 1.43450 37000 ft 543 kts 36°
2026-05-05 08:41 29.47426 1.49304 37004 ft 543 kts 36°
2026-05-05 08:41 29.52996 1.55160 37007 ft 542 kts 36°
2026-05-05 08:42 29.58554 1.61011 37010 ft 542 kts 36°
2026-05-05 08:42 29.64106 1.66864 37014 ft 541 kts 36°
2026-05-05 08:43 29.69652 1.72720 37018 ft 541 kts 36°
2026-05-05 08:43 29.75193 1.78580 37022 ft 541 kts 36°
2026-05-05 08:44 29.80729 1.84442 37026 ft 541 kts 37°
2026-05-05 08:44 29.86263 1.90311 37029 ft 541 kts 37°
2026-05-05 08:45 29.91792 1.96185 37033 ft 540 kts 37°
2026-05-05 08:45 29.97317 2.02064 37037 ft 540 kts 37°
2026-05-05 08:46 30.02841 2.07952 37039 ft 541 kts 36°
2026-05-05 08:46 30.08377 2.13860 37043 ft 543 kts 36°
2026-05-05 08:47 30.13892 2.19753 37046 ft 544 kts 36°
2026-05-05 08:47 30.19488 2.25742 37049 ft 545 kts 37°
2026-05-05 08:48 30.25008 2.31663 37051 ft 545 kts 37°
2026-05-05 08:48 30.30568 2.37636 37053 ft 545 kts 37°
2026-05-05 08:49 30.36124 2.43614 37055 ft 545 kts 37°
2026-05-05 08:49 30.41680 2.49603 37056 ft 546 kts 37°
2026-05-05 08:50 30.47233 2.55597 37058 ft 546 kts 37°
2026-05-05 08:50 30.52787 2.61603 37058 ft 546 kts 37°
2026-05-05 08:51 30.58336 2.67614 37059 ft 546 kts 37°
2026-05-05 08:51 30.63885 2.73634 37060 ft 546 kts 37°
2026-05-05 08:52 30.69430 2.79660 37060 ft 546 kts 37°
2026-05-05 08:52 30.74976 2.85696 37060 ft 546 kts 37°
2026-05-05 08:53 30.80517 2.91737 37061 ft 546 kts 37°
2026-05-05 08:53 30.86054 2.97784 37063 ft 546 kts 37°
2026-05-05 08:54 30.91589 3.03839 37065 ft 546 kts 37°
2026-05-05 08:54 30.97119 3.09899 37068 ft 546 kts 37°
2026-05-05 08:55 31.02608 3.15923 37072 ft 546 kts 37°
2026-05-05 08:55 31.08135 3.21999 37076 ft 546 kts 37°
2026-05-05 08:56 31.13656 3.28079 37081 ft 546 kts 37°
2026-05-05 08:56 31.19175 3.34166 37089 ft 546 kts 37°
2026-05-05 08:57 31.24692 3.40262 37097 ft 546 kts 37°
2026-05-05 08:57 31.30204 3.46362 37104 ft 546 kts 37°
2026-05-05 08:58 31.35712 3.52470 37110 ft 545 kts 37°
2026-05-05 08:58 31.41214 3.58581 37116 ft 545 kts 37°
2026-05-05 08:59 31.46708 3.64694 37122 ft 545 kts 37°
2026-05-05 08:59 31.52199 3.70813 37127 ft 545 kts 37°
2026-05-05 09:00 31.57688 3.76939 37132 ft 545 kts 38°
2026-05-05 09:00 31.63169 3.83068 37133 ft 544 kts 38°
2026-05-05 09:01 31.68613 3.89164 37123 ft 544 kts 38°
2026-05-05 09:01 31.74095 3.95314 37121 ft 547 kts 38°
2026-05-05 09:02 31.79625 4.01521 37123 ft 552 kts 38°
2026-05-05 09:02 31.85175 4.07763 37125 ft 554 kts 38°
2026-05-05 09:03 31.90745 4.14042 37126 ft 555 kts 38°
2026-05-05 09:03 31.96317 4.20337 37129 ft 555 kts 38°
2026-05-05 09:04 32.01891 4.26647 37131 ft 556 kts 39°
2026-05-05 09:04 32.07454 4.32952 37129 ft 554 kts 39°
2026-05-05 09:05 32.13008 4.39264 37128 ft 553 kts 39°
2026-05-05 09:05 32.18545 4.45568 37126 ft 553 kts 39°
2026-05-05 09:06 32.24063 4.51863 37124 ft 552 kts 39°
2026-05-05 09:06 32.29595 4.58183 37122 ft 552 kts 39°
2026-05-05 09:07 32.35068 4.64445 37119 ft 552 kts 39°
2026-05-05 09:07 32.40582 4.70766 37125 ft 552 kts 39°
2026-05-05 09:08 32.46097 4.77098 37125 ft 552 kts 39°
2026-05-05 09:08 32.51615 4.83445 37124 ft 552 kts 39°
2026-05-05 09:09 32.57114 4.89782 37123 ft 552 kts 39°
2026-05-05 09:09 32.62615 4.96132 37122 ft 552 kts 39°
2026-05-05 09:10 32.68114 5.02491 37121 ft 552 kts 39°
2026-05-05 09:10 32.73608 5.08856 37121 ft 552 kts 39°
2026-05-05 09:11 32.79101 5.15231 37121 ft 552 kts 39°
2026-05-05 09:11 32.84586 5.21609 37114 ft 552 kts 39°
2026-05-05 09:12 32.90067 5.27994 37112 ft 551 kts 39°
2026-05-05 09:12 32.95546 5.34388 37113 ft 551 kts 39°
2026-05-05 09:13 33.01016 5.40784 37113 ft 551 kts 39°
2026-05-05 09:13 33.06483 5.47187 37106 ft 551 kts 40°
2026-05-05 09:14 33.11939 5.53590 37108 ft 550 kts 40°
2026-05-05 09:14 33.16511 5.58964 37114 ft 550 kts 40°
2026-05-05 09:15 33.21922 5.65335 37116 ft 550 kts 40°
2026-05-05 09:15 33.27367 5.71759 37117 ft 550 kts 40°
2026-05-05 09:16 33.32807 5.78187 37118 ft 550 kts 40°
2026-05-05 09:16 33.38238 5.84617 37118 ft 549 kts 40°
2026-05-05 09:17 33.43658 5.91047 37118 ft 549 kts 40°
2026-05-05 09:17 33.49079 5.97489 37118 ft 548 kts 40°
2026-05-05 09:18 33.54488 6.03930 37119 ft 548 kts 40°
2026-05-05 09:18 33.59888 6.10372 37118 ft 547 kts 40°
2026-05-05 09:19 33.65278 6.16814 37119 ft 547 kts 40°
2026-05-05 09:19 33.70672 6.23273 37120 ft 547 kts 40°
2026-05-05 09:20 33.76053 6.29729 37122 ft 547 kts 40°
2026-05-05 09:20 33.81438 6.36200 37125 ft 547 kts 40°
2026-05-05 09:21 33.86814 6.42674 37128 ft 547 kts 41°
2026-05-05 09:21 33.92188 6.49156 37131 ft 547 kts 41°
2026-05-05 09:22 33.97552 6.55640 37139 ft 547 kts 41°
2026-05-05 09:22 34.02916 6.62135 37145 ft 546 kts 41°
2026-05-05 09:23 34.08263 6.68623 37148 ft 545 kts 41°
2026-05-05 09:23 34.13569 6.75073 37152 ft 544 kts 41°
2026-05-05 09:24 34.18898 6.81565 37156 ft 544 kts 41°
2026-05-05 09:24 34.24222 6.88062 37159 ft 544 kts 41°
2026-05-05 09:25 34.29543 6.94567 37162 ft 544 kts 41°
2026-05-05 09:25 34.34857 7.01077 37165 ft 543 kts 41°
2026-05-05 09:26 34.40162 7.07588 37168 ft 543 kts 41°
2026-05-05 09:26 34.45463 7.14110 37170 ft 544 kts 40°
2026-05-05 09:27 34.50782 7.20668 37190 ft 546 kts 40°
2026-05-05 09:27 34.56120 7.27254 37194 ft 548 kts 40°
2026-05-05 09:28 34.61462 7.33857 37198 ft 549 kts 40°
2026-05-05 09:28 34.66808 7.40479 37202 ft 549 kts 40°
2026-05-05 09:29 34.72160 7.47121 37207 ft 550 kts 40°
2026-05-05 09:29 34.77505 7.53768 37211 ft 550 kts 40°
2026-05-05 09:30 34.82840 7.60419 37220 ft 550 kts 40°
2026-05-05 09:30 34.88184 7.67093 37226 ft 550 kts 41°
2026-05-05 09:31 34.93517 7.73767 37232 ft 550 kts 41°
2026-05-05 09:31 34.98845 7.80447 37238 ft 550 kts 41°
2026-05-05 09:32 35.04172 7.87140 37244 ft 549 kts 41°
2026-05-05 09:32 35.09490 7.93835 37250 ft 549 kts 41°
2026-05-05 09:33 35.14801 8.00535 37253 ft 549 kts 41°
2026-05-05 09:33 35.20101 8.07229 37257 ft 547 kts 42°
2026-05-05 09:34 35.25348 8.13874 37258 ft 546 kts 42°
2026-05-05 09:34 35.30617 8.20564 37260 ft 545 kts 42°
2026-05-05 09:35 35.35866 8.27242 37261 ft 545 kts 42°
2026-05-05 09:35 35.43750 8.37295 37260 ft 545 kts 43°
2026-05-05 09:36 35.49000 8.44007 37257 ft 545 kts 43°
2026-05-05 09:36 35.54241 8.50719 37253 ft 545 kts 43°
2026-05-05 09:37 35.59481 8.57443 37247 ft 545 kts 43°
2026-05-05 09:37 35.64718 8.64177 37240 ft 545 kts 43°
2026-05-05 09:38 35.69942 8.70909 37233 ft 544 kts 43°
2026-05-05 09:38 35.75164 8.77652 37225 ft 544 kts 43°
2026-05-05 09:39 35.80379 8.84399 37226 ft 543 kts 43°
2026-05-05 09:39 35.85587 8.91149 37222 ft 543 kts 43°
2026-05-05 09:40 35.90789 8.97906 37217 ft 543 kts 43°
2026-05-05 09:40 35.95986 9.04671 37213 ft 543 kts 43°
2026-05-05 09:41 36.01177 9.11443 37211 ft 542 kts 43°
2026-05-05 09:41 36.06356 9.18213 37209 ft 542 kts 43°
2026-05-05 09:42 36.11521 9.24977 37205 ft 541 kts 43°
2026-05-05 09:42 36.16682 9.31751 37203 ft 540 kts 43°
2026-05-05 09:43 36.21834 9.38527 37204 ft 540 kts 43°
2026-05-05 09:43 36.26978 9.45306 37204 ft 540 kts 43°
2026-05-05 09:44 36.32122 9.52099 37205 ft 540 kts 43°
2026-05-05 09:44 36.37256 9.58893 37206 ft 540 kts 43°
2026-05-05 09:45 36.42394 9.65707 37208 ft 540 kts 43°
2026-05-05 09:45 36.47523 9.72523 37210 ft 540 kts 43°
2026-05-05 09:46 36.52646 9.79347 37205 ft 540 kts 44°
2026-05-05 09:46 36.57738 9.86142 37208 ft 540 kts 44°
2026-05-05 09:47 36.62856 9.92989 37209 ft 540 kts 44°
2026-05-05 09:47 36.67968 9.99842 37208 ft 540 kts 44°
2026-05-05 09:48 36.73077 10.06708 37208 ft 540 kts 44°
2026-05-05 09:48 36.78188 10.13594 37208 ft 541 kts 44°
2026-05-05 09:49 36.83263 10.20526 37201 ft 543 kts 46°
2026-05-05 09:49 36.85298 10.24501 37201 ft 550 kts 60°
2026-05-05 09:49 36.86572 10.29027 37207 ft 555 kts 75°
2026-05-05 09:50 36.86996 10.33815 37211 ft 559 kts 89°
2026-05-05 09:50 36.86651 10.38659 37219 ft 560 kts 99°
2026-05-05 09:50 36.84678 10.48031 37218 ft 557 kts 110°
2026-05-05 09:51 36.82019 10.57078 37216 ft 553 kts 112°
2026-05-05 09:51 36.79289 10.66032 37222 ft 552 kts 112°